Terug naar catalogus

CZ-6A DEB

ActiefSSO
NORAD 54303·DEBRIS·🇨🇳 China

Gelanceerd Nov 11, 2022 vanaf Taiyuan Satellite Launch Center

Loading…

Volgende Passages (komende 24 uur)

TLE

VersSource: Space-Track

Epoch: Sep 14, 2026, 10:56 UTC

1 54303U 22151AW  26257.45580767 -.00000064  00000-0 -11806-4 0  9992
2 54303  98.8609 257.3788 0047872  97.9173 262.7434 14.09122164196926

Volg CZ-6A DEB in realtime met AllMySat

Download on the App Store